Date,TemperatureHighF,TemperatureAvgF,TemperatureLowF,DewpointHighF,DewpointAvgF,DewpointLowF,HumidityHigh,HumidityAvg,HumidityLow,PressureMaxIn,PressureMinIn,WindSpeedMaxMPH,WindSpeedAvgMPH,GustSpeedMaxMPH,PrecipitationSumIn
2013-11-1,60,54,48,56,6,-100,91,51,21,29.60,29.26,0,0,1,0.00
2013-11-2,52,49,44,48,28,-100,91,64,3,29.92,29.58,0,0,0,0.00
2013-11-3,51,45,39,46,38,20,91,80,31,30.21,29.92,0,0,0,0.00
2013-11-4,55,46,38,41,29,-5,91,62,8,30.25,30.15,0,0,0,0.00
2013-11-5,59,53,49,52,12,-100,91,48,1,30.25,30.07,0,0,0,0.00
2013-11-6,62,56,46,58,-6,-100,91,45,4,30.06,29.82,0,0,1,0.00
2013-11-7,46,42,39,43,-4,-100,91,50,3,30.09,29.86,0,0,0,0.00
2013-11-8,47,39,31,40,13,-100,91,58,1,30.19,30.02,0,0,0,0.00
2013-11-9,59,48,39,25,-74,-100,56,7,3,30.07,29.85,0,0,0,0.00
2013-11-10,111,44,34,58,-19,-100,69,25,3,30.18,30.15,3,3,6,0.00
2013-11-11,49,41,32,44,17,-100,91,67,2,30.14,29.92,13,6,24,0.00
2013-11-12,33,28,24,31,23,7,91,82,36,30.42,30.09,13,8,26,0.00
2013-11-13,37,29,21,28,-27,-100,91,50,1,30.44,30.22,9,6,18,0.00
2013-11-14,51,39,29,-4,-65,-100,23,5,3,30.21,29.99,12,8,25,0.00
2013-11-15,50,44,38,40,-87,-100,78,5,16,30.01,29.94,10,6,22,0.00
2013-11-16,58,51,45,56,49,42,91,91,87,30.00,29.77,9,6,22,0.00
2013-11-17,62,59,51,60,32,-100,91,75,56,29.76,29.37,17,11,38,0.00
2013-11-18,50,45,37,44,-8,-100,91,46,1,30.02,29.63,16,10,31,0.00
2013-11-19,41,35,31,32,5,-100,91,51,2,30.19,30.02,9,5,17,0.00
2013-11-20,48,38,29,24,-22,-100,80,34,3,30.18,30.07,10,6,20,0.00
2013-11-21,56,48,40,48,16,-100,91,55,3,30.17,30.05,8,4,19,0.00
2013-11-22,52,47,37,50,45,35,91,91,91,30.20,30.01,13,6,27,0.00
2013-11-23,36,30,21,34,6,-100,91,59,3,30.36,30.17,15,8,29,0.00
2013-11-24,25,20,15,13,-38,-100,81,25,3,30.49,30.33,8,4,17,0.00
2013-11-25,36,28,18,29,-47,-100,91,23,16,30.34,30.02,12,5,27,0.00
2013-11-26,34,32,31,32,30,29,91,91,91,30.04,29.76,6,3,13,0.00
2013-11-27,32,27,23,30,16,-8,91,67,20,30.08,29.74,15,10,33,0.00
2013-11-28,33,26,21,9,-34,-100,59,27,3,30.26,30.09,11,6,31,0.00
2013-11-29,36,28,20,15,-29,-100,69,25,3,30.46,30.27,5,4,10,0.00
2013-11-30,47,35,26,13,-45,-100,49,20,15,30.35,30.02,9,5,18,0.00